Weather in Ak-Tal

Russia / Tyva Republic     51°10′25″N   93°24′27″E
temp.,
°C
wind,
m/s
gust,
m/s
humid.,
%
clouds,
%
prec.,
mm/h
press.,
hPa
HPBL,
m
5 march, fri
fri501:00−18sw12810 0.0 103220
04:00−18sw11860 0.0 103120
07:00−18ssw118716 0.0 103120
10:00−12wsw018235 0.0 102975
13:00−9ese238067 0.0 1027334
16:00−6e147296 0.0 1025399
19:00−11ssw237497 0.0 102822
22:00−13wsw117666 0.0 103121
6 march, sat
sat601:00−16nnw117947 0.0 103420
04:00−17sw11782 0.0 103420
07:00−17ssw117632 0.0 103521
10:00−11ene1174100 0.0 103337
13:00−8ene2281100 0.0 1030200
16:00−8e228885 0.0 1027194
19:00−13ssw128667 0.0 102821
22:00−15sw227484 0.0 102821
7 march, sun
sun701:00−15sw227586 0.0 102821
04:00−16sw127768 0.0 102621
07:00−17sw127882 0.0 102820
10:00−11s117676 0.0 102765
13:00−6e227688 0.0 1026259
16:00−6ene2285100 0.0 1025164
19:00−12se0089100 0.0 102721
22:00−13sw117099 0.0 102921
8 march, mon
mon801:00−15sw116473 0.0 103021
04:00−15sw116499 0.0 103021
07:00−16ssw116591 0.0 103221
10:00−9ese117011 0.0 103055
13:00−6ene22776 0.0 1028220
16:00−5e22842 0.0 1025189
19:00−12ssw11864 0.0 102621
22:00−14sw227350 0.0 102721
9 march, tue
tue901:00−14sw227249 0.0 102621
04:00−13sw2276100 0.0 102721
07:00−12nnw1273100 0.0 103021
10:00−8se1175100 0.0 103060
13:00−5ne117065 0.0 1029284
16:00−4e11781 0.0 1028187
19:00−10ese11817 0.0 102921
22:00−11ssw118461 0.0 103021